Location: Alto Pass Election Precinct
(37.5678°N, 89.3453°W)
Time: 11:21:27
(UTC+00:00)

Daily predictions for brighter satellites

Satellite Brightness Start Highest point End
(mag) Time Altitude Azimuth Time Altitude Azimuth Time Altitude Azimuth
Cosmos 2322 Rocket 3.9 12:02:17 11° NW 12:02:36 11° NW 12:04:28 10° NNW
DELTA 2 DEB (DPAF) 4.3 12:00:41 10° SSE 12:04:58 75° ENE 12:09:15 10° N
Cosmos 1634 Rocket 4.0 12:02:43 10° SSW 12:08:48 62° W 12:14:58 10° N
Cosmos 1943 Rocket 4.4 12:06:55 10° N 12:11:00 21° NE 12:15:02 10° ESE
Milstar 3 Cent rocket 4.3 12:06:42 10° WSW 12:11:36 27° S 12:19:27 10° SE
Cosmos 2285 Rocket 4.1 12:06:28 10° SSW 12:12:46 88° ESE 12:19:11 10° NNE
Cosmos 1331 Rocket 4.4 12:09:49 10° NNW 12:15:02 68° ENE 12:20:11 10° SSE
COSMOS 2428 3.0 12:12:22 10° SW 12:17:45 44° WNW 12:23:12 10° N
Cosmos 2333 Rocket 3.7 12:15:24 10° W 12:18:40 15° NW 12:21:58 10° NNW
SMAP 3.1 12:18:41 10° NNE 12:23:21 85° WNW 12:28:01 10° SSW
Cosmos 1980 3.8 12:18:22 10° SSW 12:24:01 84° ESE 12:29:42 10° NNE
NOSS 0 Rocket 3.9 12:18:17 10° SSW 12:24:30 73° WNW 12:30:46 10° NNE
Cosmos 1933 4.5 12:26:39 10° NW 12:29:49 23° W 12:32:57 10° SW
Cosmos 1076 Rocket 3.5 12:27:04 10° SSW 12:31:18 67° W 12:35:36 10° N
Cosmos 2058 Rocket 3.1 23:00:29 10° S 23:04:56 79° E 23:09:22 10° N
Cosmos 1634 Rocket 4.2 23:00:39 10° N 23:06:59 82° W 23:13:18 10° S
DMSP B5D2-2 4.1 23:03:30 10° NNE 23:08:44 87° ESE 23:13:58 10° SSW
USA 276 1.7 23:06:30 10° WSW 23:08:52 60° NW 23:11:18 10° NE
COSMO-SKYMED 1 4.0 23:06:05 10° NE 23:09:12 19° E 23:12:18 10° SE
SJ-7 4.4 23:09:30 10° SSE 23:13:26 90° WSW 23:17:27 10° NNW
Helios 1A 3.6 23:12:28 10° NNE 23:16:18 36° E 23:20:06 10° SSE
CZ-2D R/B 3.8 23:14:12 10° S 23:17:50 60° W 23:21:28 10° NNW
Cosmos 1500 3.1 23:14:25 10° N 23:17:53 51° E 23:21:19 10° SSE
Cosmos 2082 3.9 23:12:53 10° SSW 23:18:28 77° WNW 23:24:07 10° NNE
Lacrosse 5 3.3 23:15:25 10° SSE 23:19:07 21° ESE 23:22:38 11° ENE
Cosmos 2142 Rocket 4.4 23:14:13 10° N 23:20:21 74° E 23:26:29 10° SSE
SMAP 3.0 23:19:37 10° SSE 23:24:15 77° ENE 23:28:55 10° N
Cosmos-2242 3.5 23:21:05 10° SSE 23:25:09 40° E 23:29:13 10° NNE
NOSS 3-4 (A) 4.0 23:18:21 10° NNW 23:25:35 77° ENE 23:33:49 10° SE
NOSS 3-4 (C) 3.9 23:18:30 10° NNW 23:25:40 78° ENE 23:33:48 10° SE
Cosmos 1437 Rocket 2.9 23:22:12 10° NNW 23:25:54 74° W 23:29:39 10° S
CZ-2C R/B 3.3 23:25:10 10° S 23:28:38 57° W 23:32:08 10° NNW
CZ-2C R/B 1.1 23:29:02 10° WSW 23:31:24 37° S 23:33:34 11° ESE
Cosmos 1140 Rocket 4.3 23:28:12 10° N 23:32:36 27° ENE 23:36:56 10° ESE
USA 234 3.6 23:26:33 10° NE 23:32:59 64° NW 23:39:26 10° WSW
Cosmos 2279 Rocket 4.2 23:28:26 10° N 23:34:40 76° W 23:40:50 10° S
Cosmos 1812 2.8 23:32:02 10° SSE 23:35:34 47° E 23:39:07 10° NNE
Cosmos 2221 4.4 23:33:51 10° ESE 23:34:42 12° E 23:34:42 12° E
Helios 1B rocket 4.4 23:34:01 10° SSW 23:37:31 31° W 23:41:03 10° NW
Cosmos 2151 3.7 23:35:08 10° NNW 23:39:19 56° W 23:43:28 10° S
CZ-4B R/B 3.7 23:36:32 10° S 23:40:07 79° WSW 23:43:43 10° NNW
APEX 2.9 23:38:45 10° S 23:41:52 45° ESE 23:43:30 21° NE
NOAA 6 4.3 23:40:58 10° SE 23:45:48 44° ENE 23:50:39 10° N
Cosmos 1092 Rocket 4.3 23:40:33 10° SSE 23:46:11 40° E 23:51:50 10° NNE
Meteor 1-31 Rocket 3.1 23:42:33 10° S 23:46:12 65° WSW 23:49:53 10° NNW
Nadezhda 4 Rocket 3.9 23:43:06 10° S 23:49:16 85° E 23:55:25 10° N
Cosmos 2227 4.2 23:44:33 10° S 23:50:15 69° ESE 23:55:59 10° NNE
Meteor 1-20 Rocket 4.3 23:45:38 10° N 23:51:05 54° ENE 23:56:37 10° SSE
Cosmos 2263 Rocket 3.1 23:46:19 10° SW 23:51:38 46° WNW 23:56:59 10° N
Cosmos 1844 Rocket 3.3 23:48:06 10° SSE 23:52:59 33° ESE 23:55:45 21° ENE
Tiangong -0.8 23:52:08 10° W 23:55:05 37° SSW 23:57:47 12° SE
